DW3801 Weather Reports


time (UTC)temp
F
wind
direction
speed
knots
gust
knots
rain 1hr
in
rain 24hr
in
rain mn
in
humidity
%
barometer
mb
20260508043852 60 237 0.9 4.3 0.00 0.00 0.00 89 1015.4
20260508043352 61 249 2.6 6.1 0.00 0.00 0.00 89 1015.3
20260508042853 61 301 2.6 6.1 0.00 0.00 0.00 89 1015.3
20260508041352 61 245 2.6 7.0 0.00 0.00 0.00 89 1015.2
20260508040852 61 272 2.6 7.0 0.00 0.00 0.00 89 1015.1
20260508040352 61 281 2.6 6.1 0.00 0.00 0.00 89 1015.0
20260508035852 61 284 2.6 7.0 0.00 0.00 0.00 89 1015.0
20260508035352 61 257 1.7 4.3 0.00 0.00 0.00 89 1015.0
20260508034852 61 247 1.7 6.1 0.00 0.00 0.00 88 1015.0
20260508034352 61 262 2.6 6.1 0.00 0.00 0.00 88 1014.9
20260508033853 61 254 1.7 6.1 0.00 0.00 0.00 88 1014.9
20260508033353 61 251 1.7 4.3 0.00 0.00 0.00 88 1014.8
20260508032853 61 253 2.6 6.1 0.00 0.00 0.00 88 1014.8
20260508031853 61 261 0.9 2.6 0.00 0.00 0.00 87 1014.6
20260508031352 61 251 1.7 4.3 0.00 0.00 0.00 87 1014.5
20260508030853 61 255 0.9 2.6 0.00 0.00 0.00 87 1014.4
20260508030353 61 267 1.7 5.2 0.00 0.00 0.00 87 1014.4
20260508025853 61 256 0.9 5.2 0.00 0.00 0.00 86 1014.4
20260508024352 61 226 2.6 5.2 0.00 0.00 0.00 86 1014.2
20260508023852 62 242 2.6 5.2 0.00 0.00 0.00 86 1014.2
20260508023352 62 238 2.6 6.1 0.00 0.00 0.00 86 1014.2
20260508022853 62 270 1.7 5.2 0.00 0.00 0.00 86 1014.2
20260508022353 62 344 2.6 7.0 0.00 0.00 0.00 86 1014.0
20260508021852 62 326 4.3 7.0 0.00 0.00 0.00 85 1014.1
20260508020852 63 332 2.6 7.0 0.00 0.00 0.00 85 1014.0
20260508020353 63 343 4.3 10.4 0.00 0.00 0.00 85 1014.0
20260508015852 63 338 4.3 7.8 0.00 0.00 0.00 85 1014.0
20260508015353 63 329 4.3 8.7 0.00 0.00 0.00 83 1013.9
20260508014853 64 306 2.6 8.7 0.00 0.00 0.00 82 1013.9
20260508014353 64 328 3.5 8.7 0.00 0.00 0.00 81 1013.8
20260508013852 64 305 2.6 7.0 0.00 0.00 0.00 82 1013.8
20260508013352 64 343 2.6 7.8 0.00 0.00 0.00 82 1013.8
20260508012853 64 353 3.5 7.8 0.00 0.00 0.00 82 1013.8
20260508012352 64 341 4.3 8.7 0.00 0.00 0.00 82 1013.8
20260508011852 64 350 4.3 8.7 0.00 0.00 0.00 83 1013.8
20260508011353 64 0 5.2 10.4 0.00 0.00 0.00 83 1013.7
20260508010852 64 345 2.6 10.4 0.00 0.00 0.00 83 1013.7
20260508010352 64 331 4.3 7.8 0.00 0.00 0.00 83 1013.7
20260508005852 64 345 4.3 11.3 0.00 0.00 0.00 83 1013.7
20260508005353 64 345 4.3 12.2 0.00 0.00 0.00 83 1013.7
20260508004852 64 345 5.2 10.4 0.00 0.00 0.00 82 1013.8
20260508004352 64 356 3.5 8.7 0.00 0.00 0.00 83 1013.7
20260508003852 64 339 4.3 10.4 0.00 0.00 0.00 84 1013.8
20260508002852 64 345 6.1 11.3 0.00 0.00 0.00 83 1013.8
20260508002352 64 358 5.2 12.2 0.00 0.00 0.00 83 1013.8
20260508001353 64 341 5.2 11.3 0.00 0.00 0.00 83 1013.9
20260508000853 64 350 6.1 10.4 0.00 0.00 0.00 83 1014.0
20260507235852 64 314 4.3 8.7 0.00 0.00 0.00 82 1013.9
20260507235353 64 343 4.3 10.4 0.00 0.00 0.00 83 1014.0
20260507234853 64 267 4.3 10.4 0.00 0.00 0.00 82 1014.0
20260507234353 64 328 5.2 10.4 0.00 0.00 0.00 83 1014.0
20260507233852 64 307 4.3 10.4 0.00 0.00 0.00 84 1014.1
20260507233352 64 338 3.5 10.4 0.00 0.00 0.00 84 1014.2
20260507232852 64 320 4.3 10.4 0.00 0.00 0.00 84 1014.2
20260507232352 64 292 4.3 10.4 0.00 0.00 0.00 84 1014.2
20260507231852 64 310 5.2 10.4 0.00 0.00 0.00 83 1014.2
20260507231352 65 294 5.2 7.8 0.00 0.00 0.00 82 1014.2
20260507230853 65 257 3.5 10.4 0.00 0.00 0.00 82 1014.2
20260507230353 65 272 4.3 10.4 0.00 0.00 0.00 82 1014.2
20260507225352 65 300 5.2 11.3 0.00 0.00 0.00 80 1014.1
20260507224852 66 289 4.3 10.4 0.00 0.00 0.00 80 1014.2
20260507224352 65 298 5.2 11.3 0.00 0.00 0.00 80 1014.2
20260507223853 66 329 5.2 11.3 0.00 0.00 0.00 80 1014.3
20260507223353 65 322 5.2 10.4 0.00 0.00 0.00 81 1014.3
20260507222853 65 295 5.2 10.4 0.00 0.00 0.00 80 1014.5
20260507222353 65 285 5.2 10.4 0.00 0.00 0.00 80 1014.5
20260507221853 65 297 5.2 11.3 0.00 0.00 0.00 80 1014.6
20260507221352 65 287 5.2 13.0 0.00 0.00 0.00 80 1014.6
20260507220352 66 286 5.2 8.7 0.00 0.00 0.00 80 1014.8
20260507215852 65 318 7.0 12.2 0.00 0.00 0.00 80 1014.7
20260507215353 65 293 7.8 13.0 0.00 0.00 0.00 80 1014.7
20260507214852 65 274 7.8 13.9 0.00 0.00 0.00 79 1014.7
20260507214353 66 263 6.1 13.0 0.00 0.00 0.00 79 1014.7
20260507213852 66 280 5.2 11.3 0.00 0.00 0.00 79 1014.7
20260507212853 66 308 6.1 14.8 0.00 0.00 0.00 79 1014.8
20260507212352 66 287 6.1 12.2 0.00 0.00 0.00 79 1014.7
20260507211852 66 307 6.1 11.3 0.00 0.00 0.00 80 1014.7
20260507211353 66 332 6.1 13.0 0.00 0.00 0.00 79 1014.7
20260507210852 66 312 7.0 14.8 0.00 0.00 0.00 79 1014.9
20260507210352 66 321 4.3 11.3 0.00 0.00 0.00 80 1015.0
20260507205353 65 277 6.1 12.2 0.00 0.00 0.00 81 1015.1
20260507204852 65 330 6.1 12.2 0.00 0.00 0.00 80 1015.1
20260507204352 66 330 7.0 12.2 0.00 0.00 0.00 80 1015.1
20260507203853 66 314 5.2 12.2 0.00 0.00 0.00 81 1015.2
20260507203352 65 312 6.1 13.0 0.00 0.00 0.00 81 1015.2
20260507202852 65 330 7.8 14.8 0.00 0.00 0.00 81 1015.2
20260507201853 65 335 7.8 11.3 0.00 0.00 0.00 80 1015.3
20260507201352 65 324 5.2 13.9 0.00 0.00 0.00 81 1015.3
20260507200852 65 319 6.1 11.3 0.00 0.00 0.00 81 1015.3
20260507195852 65 336 7.8 13.0 0.00 0.00 0.00 81 1015.5
20260507194852 65 344 5.2 11.3 0.00 0.00 0.00 81 1015.5
20260507194352 65 344 7.0 12.2 0.00 0.00 0.00 81 1015.6
20260507193852 65 327 6.1 13.0 0.00 0.00 0.00 81 1015.6
20260507192852 65 334 6.1 12.2 0.00 0.00 0.00 81 1015.7
20260507192352 65 317 6.1 13.9 0.00 0.00 0.00 82 1015.7
20260507191852 65 341 7.0 11.3 0.00 0.00 0.00 81 1015.7
20260507190852 65 349 7.0 11.3 0.00 0.00 0.00 80 1015.9
20260507190352 65 344 5.2 10.4 0.00 0.00 0.00 82 1015.8
20260507185852 64 337 5.2 10.4 0.00 0.00 0.00 82 1015.9
20260507184852 64 342 5.2 11.3 0.00 0.00 0.00 81 1016.0
20260507184352 64 328 5.2 10.4 0.00 0.00 0.00 82 1016.0
20260507183853 64 325 6.1 10.4 0.00 0.00 0.00 82 1016.0
20260507182852 64 334 6.1 10.4 0.00 0.00 0.00 82 1016.1
20260507182352 64 318 5.2 10.4 0.00 0.00 0.00 82 1016.0
20260507181852 64 303 6.1 10.4 0.00 0.00 0.00 82 1016.1
20260507181353 64 277 5.2 10.4 0.00 0.00 0.00 82 1016.1
20260507180852 64 324 5.2 10.4 0.00 0.00 0.00 82 1016.2
20260507180352 64 331 5.2 10.4 0.00 0.00 0.00 81 1016.3
20260507175852 64 323 4.3 7.8 0.00 0.00 0.00 82 1016.2
20260507175352 64 335 4.3 10.4 0.00 0.00 0.00 82 1016.2
20260507174852 64 350 6.1 11.3 0.00 0.00 0.00 82 1016.2
20260507174353 64 346 5.2 7.8 0.00 0.00 0.00 82 1016.2
20260507173352 64 352 4.3 10.4 0.00 0.00 0.00 83 1016.3
20260507172352 64 355 4.3 8.7 0.00 0.00 0.00 83 1016.3
20260507171853 64 353 4.3 7.8 0.00 0.00 0.00 83 1016.4
20260507171352 63 329 4.3 7.8 0.00 0.00 0.00 83 1016.4
20260507170852 63 301 4.3 8.7 0.00 0.00 0.00 84 1016.3
20260507165852 63 313 4.3 8.7 0.00 0.00 0.00 84 1016.4
20260507165352 63 347 4.3 7.0 0.00 0.00 0.00 84 1016.4
20260507164852 63 355 3.5 7.0 0.00 0.00 0.00 85 1016.4
20260507164352 62 351 4.3 10.4 0.00 0.00 0.00 85 1016.4
20260507163852 62 349 4.3 7.0 0.00 0.00 0.00 85 1016.4
20260507163352 62 339 4.3 7.0 0.00 0.00 0.00 85 1016.5
20260507162852 62 348 3.5 7.0 0.00 0.00 0.00 86 1016.5
20260507162352 62 335 2.6 6.1 0.00 0.00 0.00 86 1016.4
20260507161852 62 358 4.3 7.0 0.00 0.00 0.00 86 1016.4
20260507161352 62 325 3.5 7.0 0.00 0.00 0.00 86 1016.4
20260507160353 62 338 4.3 7.8 0.00 0.00 0.00 86 1016.5
20260507155852 62 347 2.6 7.0 0.00 0.00 0.00 87 1016.5
20260507155352 62 345 3.5 7.0 0.00 0.00 0.00 86 1016.4
20260507154852 61 335 4.3 8.7 0.00 0.00 0.00 86 1016.4
20260507154352 62 330 2.6 5.2 0.00 0.00 0.00 87 1016.5
20260507153353 61 344 2.6 7.0 0.00 0.00 0.00 88 1016.4
20260507152853 61 353 3.5 5.2 0.00 0.00 0.00 88 1016.4
20260507152353 61 330 2.6 6.1 0.00 0.00 0.00 88 1016.4
20260507151852 61 342 2.6 7.0 0.00 0.00 0.00 88 1016.5
20260507151352 61 329 2.6 5.2 0.00 0.00 0.00 89 1016.6
20260507150852 61 313 1.7 6.1 0.00 0.00 0.00 88 1016.5
20260507150352 61 349 4.3 6.1 0.00 0.00 0.00 89 1016.5
20260507145852 61 315 1.7 5.2 0.00 0.00 0.00 90 1016.5
20260507145352 60 327 2.6 4.3 0.00 0.00 0.00 89 1016.4
20260507144352 60 313 2.6 4.3 0.00 0.00 0.00 90 1016.4
20260507143852 60 293 1.7 5.2 0.00 0.00 0.00 90 1016.4
20260507143352 60 313 1.7 4.3 0.00 0.00 0.00 90 1016.4
20260507142852 59 316 1.7 2.6 0.00 0.00 0.00 91 1016.3
20260507142352 59 275 1.7 2.6 0.00 0.00 0.00 90 1016.3
20260507141352 58 264 1.7 2.6 0.00 0.00 0.00 91 1016.2
20260507140852 58 251 1.7 2.6 0.00 0.00 0.00 91 1016.1
20260507140352 57 242 1.7 2.6 0.00 0.00 0.00 92 1016.1
20260507135852 57 247 0.9 1.7 0.00 0.00 0.00 92 1016.1
20260507135352 56 190 0.0 0.0 0.00 0.00 0.00 92 1016.1
20260507134853 56 190 0.0 0.0 0.00 0.00 0.00 91 1016.0
20260507134352 56 190 0.0 0.0 0.00 0.00 0.00 92 1015.9
20260507133352 55 190 0.9 2.6 0.00 0.00 0.00 92 1015.9
20260507132852 55 190 0.9 1.7 0.00 0.00 0.00 91 1015.8
20260507132352 55 190 0.9 1.7 0.00 0.00 0.00 91 1015.7
20260507131852 55 190 0.9 2.6 0.00 0.00 0.00 91 1015.7
20260507131352 55 190 0.9 1.7 0.00 0.00 0.00 91 1015.7
20260507130852 55 190 0.9 1.7 0.00 0.00 0.00 91 1015.7
20260507130352 55 190 0.9 1.7 0.00 0.00 0.00 91 1015.6
20260507125852 56 190 0.9 2.6 0.00 0.00 0.00 91 1015.5
20260507124852 56 190 0.0 1.7 0.00 0.00 0.00 92 1015.4
20260507124352 56 190 0.9 1.7 0.00 0.00 0.00 91 1015.5
20260507123852 56 190 0.9 1.7 0.00 0.00 0.00 91 1015.4
20260507123352 56 190 0.9 1.7 0.00 0.00 0.00 92 1015.5
20260507122851 55 190 0.9 1.7 0.00 0.00 0.00 91 1015.4
20260507122352 55 190 0.9 2.6 0.00 0.00 0.00 90 1015.4
20260507121852 55 190 0.9 1.7 0.00 0.00 0.00 90 1015.5
20260507121352 55 190 0.9 1.7 0.00 0.00 0.00 90 1015.4
20260507120852 55 190 0.9 1.7 0.00 0.00 0.00 90 1015.4
20260507120352 55 180 0.9 1.7 0.00 0.00 0.00 90 1015.5
20260507115852 55 182 0.9 1.7 0.00 0.00 0.00 90 1015.4
20260507115352 55 184 0.9 1.7 0.00 0.00 0.00 89 1015.4
20260507114852 56 184 0.9 1.7 0.00 0.00 0.00 90 1015.4
20260507114353 56 186 0.9 1.7 0.00 0.00 0.00 90 1015.5
20260507113852 56 237 0.9 1.7 0.00 0.00 0.00 89 1015.5
20260507113352 56 237 0.9 0.9 0.00 0.00 0.00 89 1015.4
20260507112852 56 237 0.9 1.7 0.00 0.00 0.00 89 1015.4
20260507112352 56 237 0.9 1.7 0.00 0.00 0.00 89 1015.5
20260507111852 57 237 0.0 0.9 0.00 0.00 0.00 89 1015.5
20260507111353 57 237 0.0 0.9 0.00 0.00 0.00 89 1015.5
20260507110852 57 237 0.9 1.7 0.00 0.00 0.00 89 1015.5
20260507110352 57 237 0.0 0.9 0.00 0.00 0.00 89 1015.6
20260507105853 57 194 0.0 1.7 0.00 0.00 0.00 89 1015.6
20260507105351 57 188 0.0 0.0 0.00 0.00 0.00 89 1015.7
20260507104852 57 188 0.0 0.0 0.00 0.00 0.00 89 1015.7
20260507104352 57 188 0.0 0.0 0.00 0.00 0.00 89 1015.8
20260507103852 57 188 0.0 0.0 0.00 0.00 0.00 89 1015.8
20260507103352 57 188 0.0 0.0 0.00 0.00 0.00 89 1015.9
20260507102852 57 188 0.0 0.0 0.00 0.00 0.00 89 1015.9
20260507102352 56 188 0.0 0.9 0.00 0.00 0.00 89 1015.9
20260507101352 56 188 0.0 0.9 0.00 0.00 0.00 89 1015.9
20260507100852 56 188 0.0 0.9 0.00 0.00 0.00 89 1016.0
20260507100352 56 188 0.9 1.7 0.00 0.00 0.00 89 1016.0
20260507095852 56 188 0.9 1.7 0.00 0.00 0.00 89 1016.0
20260507095353 57 188 0.9 1.7 0.00 0.00 0.00 90 1016.0
20260507094853 56 188 0.9 1.7 0.00 0.00 0.00 90 1016.0
20260507094352 56 188 0.0 0.9 0.00 0.00 0.00 90 1016.0
20260507092852 57 188 0.0 1.7 0.00 0.00 0.00 90 1016.2
20260507092352 57 187 0.9 1.7 0.00 0.00 0.00 90 1016.3
20260507091352 57 233 0.0 0.0 0.00 0.00 0.00 90 1016.3
20260507090853 57 233 0.0 0.0 0.00 0.00 0.00 90 1016.4
20260507090352 57 233 0.0 0.0 0.00 0.00 0.00 90 1016.4
20260507085853 57 233 0.0 0.0 0.00 0.00 0.00 90 1016.4
20260507085352 58 233 0.0 0.0 0.00 0.00 0.00 90 1016.5
20260507084852 58 233 0.0 0.0 0.00 0.00 0.00 90 1016.5
20260507084352 58 233 0.0 0.0 0.00 0.00 0.00 90 1016.5
20260507083853 58 233 0.0 0.9 0.00 0.00 0.00 90 1016.6
20260507083352 58 233 0.0 0.9 0.00 0.00 0.00 90 1016.6
20260507082852 58 233 0.0 1.7 0.00 0.00 0.00 90 1016.6
20260507082352 58 238 0.9 2.6 0.00 0.00 0.00 90 1016.6
20260507081852 58 259 0.9 2.6 0.00 0.00 0.00 90 1016.6
20260507081352 58 204 0.0 0.9 0.00 0.00 0.00 90 1016.7
20260507080852 58 203 0.0 1.7 0.00 0.00 0.00 90 1016.6
20260507080352 58 228 0.9 2.6 0.00 0.00 0.00 89 1016.6
20260507075853 59 288 1.7 2.6 0.00 0.00 0.00 89 1016.7
20260507074852 59 301 1.7 4.3 0.00 0.00 0.00 89 1016.8
20260507074352 59 298 1.7 2.6 0.00 0.00 0.00 88 1016.8
20260507073352 59 318 1.7 7.0 0.00 0.00 0.00 88 1016.9
20260507072852 59 322 2.6 7.0 0.00 0.00 0.00 88 1016.9
20260507072352 59 350 4.3 8.7 0.00 0.00 0.00 88 1016.9
20260507071852 59 330 3.5 7.8 0.00 0.00 0.00 88 1016.9
20260507070852 59 345 4.3 7.8 0.00 0.00 0.00 88 1017.0
20260507070352 59 293 4.3 8.7 0.00 0.00 0.00 88 1017.0
20260507065852 59 324 2.6 7.8 0.00 0.00 0.00 89 1017.0
20260507065352 59 314 3.5 7.8 0.00 0.00 0.00 90 1017.0
20260507064352 59 318 2.6 5.2 0.00 0.00 0.00 90 1017.0
20260507063852 59 306 0.9 2.6 0.00 0.00 0.00 90 1017.0
20260507063352 59 331 1.7 2.6 0.00 0.00 0.00 90 1017.1
20260507062852 59 253 1.7 2.6 0.00 0.00 0.00 90 1017.1
20260507062352 59 294 1.7 2.6 0.00 0.00 0.00 90 1017.1
20260507061852 59 323 1.7 2.6 0.00 0.00 0.00 90 1017.1
20260507061351 59 337 2.6 5.2 0.00 0.00 0.00 90 1017.1
20260507060853 59 315 1.7 4.3 0.00 0.00 0.00 90 1017.1
20260507060352 59 337 2.6 7.0 0.00 0.00 0.00 90 1017.1
20260507055852 59 342 4.3 7.8 0.00 0.00 0.00 90 1017.2
20260507055352 59 338 3.5 7.8 0.00 0.00 0.00 90 1017.2
20260507054852 59 330 2.6 7.8 0.00 0.00 0.00 90 1017.1
20260507054352 59 336 2.6 7.0 0.00 0.00 0.00 90 1017.2
20260507053852 59 343 3.5 7.0 0.00 0.00 0.00 90 1017.2
20260507053352 59 328 2.6 5.2 0.00 0.00 0.00 90 1017.2
20260507052853 59 323 2.6 7.0 0.00 0.00 0.00 90 1017.2
20260507052352 59 327 2.6 7.0 0.00 0.00 0.00 89 1017.3
20260507051851 59 337 2.6 8.7 0.00 0.00 0.00 89 1017.2
20260507051352 59 317 4.3 7.8 0.00 0.00 0.00 89 1017.2
20260507050852 59 332 2.6 7.0 0.00 0.00 0.00 89 1017.3
20260507050352 59 331 2.6 5.2 0.00 0.00 0.00 89 1017.2
20260507045852 59 347 3.5 7.0 0.00 0.00 0.00 89 1017.2
20260507045351 59 325 2.6 7.0 0.00 0.00 0.00 88 1017.2
20260507044352 60 308 2.6 7.0 0.00 0.00 0.00 89 1017.1